Wind_Speed
20 24 23 22 22 20 17 13 12 11 10 9 9 9 8 7 5 5 5 3 4 6 8 9 10 9 10 9 10 10 10 10 10 8 5 4 5 7 7 7 7 8 12
21 23 22 21 20 20 17 13 11 10 9 9 9 9 8 7 6 6 5 7 8 8 9 9 9 10 11 11 12 13 12 11 10 10 8 9 8 6 8 8 7 9 10
22 22 22 21 20 18 16 13 11 9 9 9 9 9 8 8 7 9 10 10 9 8 8 8 9 10 10 12 12 12 13 13 13 11 11 7 5 4 5 8 9 7 11
21 22 22 21 19 18 16 12 10 9 10 10 9 9 9 8 10 10 10 9 8 7 7 7 10 11 12 13 14 13 13 13 13 13 10 9 6 7 6 6 8 10 10
19 22 22 21 20 19 14 12 10 10 10 10 9 9 8 9 11 10 9 8 6 7 9 10 12 12 14 16 18 17 16 16 15 15 10 9 7 8 8 8 10 10 6
21 22 22 21 19 17 14 12 11 11 10 9 8 8 8 9 10 10 8 8 9 11 13 14 15 15 18 20 21 22 21 20 17 12 10 10 7 6 8 10 11 10 7
18 20 19 19 14 13 13 11 11 11 10 8 9 8 8 9 9 9 9 10 11 13 14 15 15 16 18 20 22 23 22 21 16 13 11 10 9 8 8 7 8 7 6
17 18 17 14 13 13 11 11 10 10 10 8 8 7 8 9 8 9 10 10 11 13 13 14 13 13 15 18 21 23 22 20 13 13 12 10 11 9 8 8 6 6 6
18 18 17 16 15 12 10 9 10 9 8 7 6 6 7 8 8 8 8 8 10 9 10 10 10 9 11 15 19 23 23 18 13 12 11 8 10 10 9 8 8 8 9
16 16 15 13 10 9 8 9 9 9 7 6 6 7 7 6 6 7 6 6 7 6 5 5 5 6 9 12 16 20 24 17 14 12 10 11 10 8 8 8 8 9 9
16 14 12 11 10 10 9 8 6 7 7 6 5 6 6 4 3 2 4 5 5 4 3 4 4 6 9 14 17 18 19 16 15 13 10 13 10 9 7 7 7 7 9
15 15 14 13 11 10 7 7 6 7 5 4 5 6 3 2 2 3 2 2 1 1 1 4 6 9 11 11 13 17 17 19 13 13 11 12 12 13 13 12 11 11 10
14 13 12 11 9 9 7 8 7 6 6 6 6 5 2 1 3 5 4 3 4 5 4 6 7 9 16 18 18 20 19 14 12 13 14 15 14 13 14 16 16 16 15
12 11 11 10 10 10 9 9 10 9 7 6 5 5 4 2 3 7 6 6 6 6 9 9 9 18 21 24 25 23 23 18 14 14 14 16 18 19 18 16 18 20 20
13 13 13 13 14 13 13 11 9 7 4 5 5 6 7 6 4 8 13 11 10 11 12 12 12 16 18 15 17 21 19 19 23 14 13 21 22 23 21 20 19 20 22
14 14 14 13 14 13 12 9 4 4 7 8 11 13 12 11 15 11 18 14 13 15 17 16 19 21 16 18 14 17 17 16 14 16 13 17 20 22 23 23 23 22 22
14 15 16 16 16 13 15 11 4 14 19 14 13 15 14 12 9 10 12 13 14 17 19 20 18 14 14 15 16 16 16 15 15 14 15 14 15 20 26 30 29 30 28
16 16 16 15 15 13 11 9 13 21 20 10 10 8 4 2 2 9 11 14 17 19 18 15 13 14 16 17 17 17 18 17 18 17 17 16 18 19 20 23 30 34 31
16 16 16 14 11 9 8 15 16 9 2 3 7 5 1 1 5 9 13 17 17 16 15 14 11 15 15 17 18 20 21 22 23 23 22 18 16 13 15 20 26 28 29
18 17 15 10 4 8 10 7 4 1 2 4 4 3 4 7 9 11 13 16 14 9 10 11 15 15 16 16 19 25 23 24 24 22 19 17 16 15 14 14 15 15 22
19 17 12 8 6 5 6 6 5 2 5 8 5 6 9 11 12 13 9 11 12 12 14 16 16 18 20 18 21 23 23 23 17 19 17 18 18 16 16 18 18 19 20
17 15 13 10 8 9 7 5 4 4 5 5 8 11 13 15 14 12 15 14 14 16 17 16 16 18 18 16 17 21 23 23 20 13 19 20 19 20 21 21 21 21 21
18 16 14 14 13 10 9 5 5 3 4 3 5 6 11 15 16 17 17 18 19 18 18 16 14 13 13 14 15 17 21 23 26 24 19 22 20 22 21 21 21 20 20
17 16 17 16 13 13 11 8 6 1 2 7 8 8 11 16 21 23 20 24 23 20 18 14 12 12 10 15 18 18 18 19 23 27 23 24 23 21 22 21 20 21 21
21 19 19 19 17 14 10 4 2 1 4 6 8 13 15 17 18 19 21 20 20 19 16 12 10 8 11 14 20 19 18 18 18 20 25 23 22 20 20 20 22 20 22
17 21 20 17 15 11 6 4 3 8 10 10 13 15 16 18 19 19 19 20 19 16 13 9 7 10 13 15 12 12 13 15 17 18 21 23 24 23 21 22 21 23 23
Wind_Direction
158 162 155 159 161 153 148 150 142 140 133 128 125 125 121 119 113 104 100 80 67 75 79 71 61 51 43 36 29 20 14 9 357 345 330 309 321 339 343 359 25 359 2
155 161 156 161 164 156 156 157 151 146 140 140 138 133 126 128 125 118 112 106 100 92 79 67 53 40 30 26 19 14 15 13 5 3 8 12 336 340 342 334 341 351 5
152 159 159 167 166 161 165 161 155 148 146 145 137 127 129 128 126 115 109 105 97 82 65 50 40 32 25 24 17 11 9 11 14 14 22 22 342 326 327 327 327 343 2
153 158 163 168 169 171 170 161 153 154 152 143 136 137 134 125 116 112 107 101 88 71 57 42 39 33 29 28 22 16 14 14 15 25 23 23 5 324 298 318 323 324 340
161 159 168 166 175 175 166 159 157 155 148 145 140 140 132 123 119 117 109 99 86 72 67 62 60 53 49 43 40 36 27 23 26 31 23 20 25 332 324 326 329 337 334
166 165 164 170 178 170 165 160 156 154 153 145 145 145 134 127 127 122 113 98 92 88 81 74 68 58 48 40 35 29 27 25 37 24 18 16 19 353 334 334 329 328 326
161 164 166 176 168 165 161 157 155 154 153 154 155 151 139 139 135 128 118 110 101 91 83 78 70 60 51 43 32 24 18 17 31 22 15 15 0 356 336 330 324 323 321
161 165 173 170 169 168 163 155 159 162 163 164 157 150 145 139 137 132 125 118 104 91 88 84 78 71 61 42 30 22 15 11 16 9 18 18 359 356 349 333 327 320 317
160 162 163 167 166 166 160 161 166 164 168 168 155 141 143 142 141 134 126 128 115 95 86 82 77 61 47 31 20 14 8 7 15 359 7 358 4 358 359 355 336 320 313
156 151 154 151 156 159 160 156 169 166 173 169 151 141 144 141 145 140 135 137 127 114 83 65 51 31 20 14 10 3 0 8 346 351 344 329 347 1 11 18 7 346 333
146 145 145 149 154 152 139 165 159 165 167 159 144 143 142 144 160 149 176 162 151 112 72 38 13 358 356 353 349 349 2 343 345 336 336 310 319 325 335 336 339 337 337
147 163 164 159 156 155 148 143 145 153 158 150 145 155 124 177 223 209 213 190 206 153 4 2 356 348 355 339 332 339 333 336 339 344 325 315 308 306 302 304 305 308 312
158 166 163 158 161 139 145 132 131 126 129 148 152 166 176 257 298 306 289 295 297 306 325 334 340 338 325 327 326 323 326 333 326 330 311 313 313 305 300 291 291 294 295
152 154 145 140 145 144 125 123 124 129 127 140 189 193 211 238 289 291 283 281 291 294 310 322 327 317 315 320 321 319 317 317 315 319 311 303 307 308 303 296 290 290 289
144 146 145 145 142 133 128 123 120 127 162 180 204 229 236 235 270 309 287 274 281 297 308 313 318 319 317 320 317 315 310 307 307 306 306 305 306 308 304 300 297 293 292
155 154 149 141 131 118 117 118 123 25 326 287 253 244 240 270 293 254 269 275 287 297 300 305 305 310 313 316 312 313 307 304 303 298 295 300 302 305 309 309 307 304 298
158 159 160 156 145 131 107 74 13 326 314 313 294 275 274 280 280 256 251 275 292 295 297 307 319 320 316 313 311 311 307 303 304 302 302 295 301 310 304 307 309 310 305
167 169 172 168 164 157 149 4 293 268 295 346 25 45 48 18 269 251 273 289 297 301 304 315 318 313 312 311 308 306 300 300 300 301 298 291 289 294 302 296 297 300 299
174 176 181 190 190 201 262 281 275 282 34 17 3 353 308 249 249 273 289 304 303 299 303 308 311 312 310 303 304 305 299 297 296 295 291 290 294 294 289 290 290 287 283
176 175 197 210 240 237 281 295 292 174 236 310 315 274 281 284 288 293 302 306 300 311 313 310 313 309 311 301 302 303 298 297 294 291 285 289 293 297 303 301 305 291 294
169 183 190 211 196 244 151 130 142 175 284 301 280 291 303 303 304 305 318 319 318 313 304 309 307 306 306 299 309 301 302 305 295 296 287 296 296 296 305 304 307 300 300
163 166 172 176 175 158 145 143 170 232 249 265 297 301 301 303 308 317 310 311 308 306 305 298 305 308 304 306 314 313 311 304 302 293 291 291 294 294 299 299 302 307 306
159 161 160 157 154 154 166 171 190 221 277 305 315 317 303 301 306 311 309 307 307 308 304 294 295 306 301 305 314 320 320 312 306 298 287 293 294 299 302 303 305 308 310
158 156 155 153 164 173 169 178 187 185 287 297 310 314 309 309 308 306 305 303 304 303 296 291 293 301 304 308 307 306 303 299 300 301 288 288 295 297 302 307 301 309 311
156 157 162 169 179 184 191 202 235 350 21 353 338 325 320 316 312 308 305 299 297 297 286 278 280 290 306 312 307 304 299 294 295 295 299 299 297 297 298 301 302 305 309
159 170 172 175 181 191 209 218 315 335 334 338 331 329 321 316 312 308 302 298 291 284 273 266 270 301 303 306 301 302 301 301 301 300 299 301 301 301 299 302 302 304 304
Height
1551 1551 1555 1559 1562 1563 1567 1569 1569 1570 1571 1573 1573 1573 1573 1573 1573 1572 1572 1573 1573 1572 1572 1572 1571 1571 1570 1569 1567 1567 1565 1563 1563 1563 1561 1560 1561 1559 1558 1557 1557 1557 1554
1549 1552 1557 1561 1563 1564 1566 1569 1570 1572 1573 1575 1574 1575 1575 1575 1575 1573 1573 1573 1573 1574 1573 1572 1571 1571 1571 1569 1568 1567 1565 1564 1563 1561 1561 1561 1561 1560 1558 1556 1556 1556 1554
1550 1554 1558 1561 1564 1566 1569 1569 1571 1573 1575 1576 1576 1576 1576 1576 1576 1574 1574 1575 1575 1576 1574 1574 1573 1572 1572 1569 1569 1568 1567 1564 1563 1561 1561 1563 1563 1559 1558 1557 1556 1556 1556
1551 1555 1560 1562 1565 1567 1570 1570 1572 1574 1576 1577 1578 1577 1577 1577 1576 1576 1576 1576 1577 1577 1575 1576 1574 1574 1573 1570 1569 1568 1566 1564 1562 1561 1564 1563 1564 1559 1558 1558 1557 1557 1557
1554 1557 1559 1561 1565 1568 1570 1571 1574 1575 1577 1577 1578 1579 1578 1577 1576 1577 1577 1577 1578 1577 1576 1576 1574 1575 1573 1572 1570 1569 1567 1564 1563 1564 1565 1561 1564 1560 1558 1558 1557 1556 1556
1553 1557 1558 1561 1566 1568 1571 1571 1572 1575 1577 1578 1579 1579 1579 1579 1578 1578 1580 1579 1578 1577 1576 1574 1575 1575 1574 1573 1571 1570 1568 1566 1564 1566 1565 1563 1562 1560 1558 1557 1557 1556 1555
1550 1557 1561 1564 1567 1571 1572 1572 1574 1575 1578 1579 1579 1580 1579 1580 1580 1580 1580 1581 1581 1578 1578 1577 1577 1576 1575 1574 1573 1571 1569 1567 1567 1566 1565 1563 1560 1559 1558 1557 1557 1556 1555
1555 1560 1563 1567 1571 1572 1573 1574 1576 1577 1578 1580 1580 1581 1581 1581 1582 1582 1581 1581 1582 1580 1580 1579 1578 1577 1576 1576 1574 1572 1571 1569 1569 1567 1565 1564 1560 1559 1557 1557 1556 1556 1555
1556 1561 1565 1568 1571 1575 1574 1575 1577 1578 1580 1581 1581 1583 1583 1583 1583 1584 1583 1583 1581 1581 1581 1581 1579 1580 1577 1575 1574 1572 1570 1569 1569 1568 1567 1564 1560 1558 1557 1556 1555 1555 1554
1559 1562 1566 1569 1573 1575 1575 1577 1578 1578 1582 1583 1582 1582 1584 1585 1586 1584 1585 1585 1582 1582 1582 1581 1580 1579 1577 1575 1574 1572 1571 1569 1570 1569 1568 1563 1560 1558 1557 1555 1555 1554 1552
1561 1565 1568 1571 1574 1575 1576 1577 1578 1580 1582 1583 1584 1585 1586 1588 1588 1588 1586 1584 1584 1583 1581 1580 1580 1578 1576 1575 1572 1571 1571 1571 1568 1568 1567 1562 1560 1558 1556 1554 1554 1553 1551
1564 1567 1568 1571 1573 1573 1577 1577 1578 1580 1585 1585 1584 1586 1588 1588 1588 1587 1587 1585 1585 1582 1581 1579 1578 1577 1576 1576 1575 1572 1571 1568 1568 1565 1563 1560 1558 1556 1554 1553 1552 1551 1549
1565 1567 1567 1569 1570 1575 1575 1577 1580 1582 1583 1584 1585 1586 1587 1588 1589 1590 1589 1587 1586 1583 1583 1580 1578 1576 1574 1573 1571 1569 1567 1566 1565 1563 1560 1557 1556 1554 1552 1550 1549 1548 1547
1565 1566 1567 1570 1571 1573 1576 1578 1580 1582 1584 1584 1586 1587 1586 1587 1588 1588 1589 1586 1584 1583 1580 1578 1576 1573 1572 1570 1568 1566 1563 1563 1562 1560 1558 1553 1552 1551 1549 1548 1546 1545 1544
1565 1567 1567 1570 1571 1574 1576 1579 1582 1584 1584 1584 1585 1584 1585 1584 1584 1586 1588 1586 1582 1580 1578 1577 1575 1572 1570 1569 1565 1563 1561 1559 1557 1556 1556 1549 1547 1546 1545 1544 1543 1541 1539
1566 1565 1568 1571 1573 1576 1577 1580 1582 1584 1584 1584 1583 1583 1581 1581 1580 1582 1585 1584 1580 1578 1576 1574 1572 1570 1568 1566 1564 1560 1558 1556 1554 1552 1552 1549 1544 1542 1540 1539 1537 1537 1536
1565 1566 1568 1571 1573 1576 1578 1580 1582 1582 1579 1582 1583 1580 1580 1578 1577 1580 1581 1580 1577 1575 1573 1570 1567 1566 1565 1564 1562 1559 1557 1554 1551 1548 1547 1546 1543 1537 1536 1533 1531 1530 1530
1565 1566 1568 1570 1573 1575 1576 1579 1581 1580 1579 1578 1577 1576 1577 1577 1577 1579 1578 1576 1574 1571 1569 1566 1564 1565 1563 1561 1558 1556 1554 1551 1548 1545 1542 1539 1539 1537 1533 1528 1527 1525 1523
1563 1564 1566 1569 1572 1575 1576 1575 1576 1577 1577 1579 1576 1576 1577 1576 1576 1577 1575 1573 1570 1568 1565 1563 1563 1559 1558 1557 1555 1552 1550 1547 1544 1542 1539 1535 1532 1529 1528 1524 1521 1519 1516
1562 1564 1566 1569 1572 1573 1574 1574 1575 1576 1578 1578 1577 1576 1576 1576 1575 1574 1572 1569 1567 1566 1564 1562 1559 1558 1555 1552 1549 1547 1545 1542 1538 1536 1534 1532 1529 1525 1523 1520 1517 1516 1510
1560 1562 1565 1568 1570 1573 1573 1574 1576 1577 1577 1577 1576 1575 1575 1574 1572 1571 1569 1566 1565 1564 1560 1558 1557 1555 1552 1548 1543 1541 1539 1536 1533 1532 1530 1528 1526 1522 1519 1516 1513 1509 1507
1558 1563 1565 1567 1570 1572 1573 1573 1575 1576 1575 1575 1574 1574 1573 1571 1569 1568 1566 1564 1562 1561 1558 1555 1551 1549 1549 1545 1542 1538 1532 1531 1529 1527 1526 1524 1521 1518 1515 1511 1508 1504 1501
1559 1562 1565 1568 1570 1571 1571 1572 1574 1575 1575 1575 1574 1573 1569 1568 1567 1565 1563 1561 1559 1556 1554 1551 1548 1545 1544 1543 1539 1537 1530 1527 1525 1525 1522 1520 1517 1514 1511 1507 1503 1499 1497
1560 1563 1565 1567 1567 1569 1570 1570 1572 1573 1574 1572 1571 1571 1569 1566 1564 1562 1560 1557 1554 1552 1549 1547 1544 1541 1539 1538 1536 1535 1532 1529 1524 1518 1518 1516 1513 1509 1507 1503 1500 1496 1492
1558 1561 1562 1564 1566 1568 1569 1570 1570 1571 1571 1571 1570 1568 1567 1565 1561 1559 1556 1552 1549 1546 1544 1542 1540 1538 1537 1534 1533 1530 1527 1525 1523 1520 1513 1511 1509 1506 1503 1500 1497 1493 1489
1559 1560 1562 1563 1565 1566 1567 1568 1568 1568 1568 1567 1566 1565 1563 1560 1557 1553 1550 1546 1544 1542 1539 1537 1535 1535 1533 1531 1529 1527 1525 1523 1520 1517 1513 1508 1504 1501 1499 1497 1493 1489 1485